| time (UTC) | temp F | wind direction | speed MPH | gust MPH | rain 1hr in | rain 24hr in | rain mn in | humidity % | barometer mb |
| 20260505034536 | 55 | 172 | 7.0 | 12.0 | 0.00 | 0.00 | 0.00 | 83 | 1013.1 |
| 20260505034035 | 55 | 194 | 6.0 | 12.0 | 0.00 | 0.00 | 0.00 | 83 | 1013.1 |
| 20260505033534 | 56 | 189 | 6.0 | 12.0 | 0.00 | 0.00 | 0.00 | 83 | 1013.0 |
| 20260505033032 | 56 | 227 | 6.0 | 12.0 | 0.00 | 0.00 | 0.00 | 82 | 1013.0 |
| 20260505032536 | 56 | 253 | 7.0 | 11.0 | 0.00 | 0.00 | 0.00 | 82 | 1012.9 |
| 20260505032034 | 56 | 232 | 7.0 | 13.0 | 0.00 | 0.00 | 0.00 | 81 | 1012.9 |
| 20260505031533 | 57 | 221 | 7.0 | 13.0 | 0.00 | 0.00 | 0.00 | 81 | 1012.8 |
| 20260505031032 | 57 | 229 | 7.0 | 11.0 | 0.00 | 0.00 | 0.00 | 80 | 1012.8 |
| 20260505030531 | 57 | 238 | 8.0 | 13.0 | 0.00 | 0.00 | 0.00 | 80 | 1012.6 |
| 20260505030032 | 58 | 228 | 8.0 | 13.0 | 0.00 | 0.00 | 0.00 | 79 | 1012.5 |
| 20260505025531 | 58 | 236 | 7.0 | 13.0 | 0.00 | 0.00 | 0.00 | 79 | 1012.5 |
| 20260505025030 | 58 | 241 | 7.0 | 13.0 | 0.00 | 0.00 | 0.00 | 79 | 1012.4 |
| 20260505024531 | 58 | 223 | 7.0 | 11.0 | 0.00 | 0.00 | 0.00 | 78 | 1012.3 |
| 20260505024026 | 59 | 216 | 6.0 | 11.0 | 0.00 | 0.00 | 0.00 | 78 | 1012.2 |
| 20260505023525 | 59 | 216 | 6.0 | 10.0 | 0.00 | 0.00 | 0.00 | 78 | 1012.2 |
| 20260505023244 | 59 | 212 | 7.0 | 14.0 | 0.00 | 0.00 | 0.00 | 78 | 1012.2 |
| 20260505022524 | 59 | 259 | 9.0 | 14.0 | 0.00 | 0.00 | 0.00 | 77 | 1012.1 |
| 20260505022019 | 60 | 230 | 10.0 | 14.0 | 0.00 | 0.00 | 0.00 | 76 | 1012.1 |
| 20260505021519 | 60 | 230 | 9.0 | 15.0 | 0.00 | 0.00 | 0.00 | 76 | 1012.1 |
| 20260505021012 | 60 | 227 | 9.0 | 15.0 | 0.00 | 0.00 | 0.00 | 75 | 1012.1 |
| 20260505020510 | 61 | 218 | 8.0 | 13.0 | 0.00 | 0.00 | 0.00 | 75 | 1012.1 |
| 20260505020011 | 61 | 224 | 8.0 | 13.0 | 0.00 | 0.00 | 0.00 | 75 | 1012.1 |
| 20260505015511 | 61 | 231 | 9.0 | 17.0 | 0.00 | 0.00 | 0.00 | 75 | 1012.1 |
| 20260505015007 | 61 | 236 | 9.0 | 17.0 | 0.00 | 0.00 | 0.00 | 74 | 1012.2 |
| 20260505014507 | 62 | 260 | 10.0 | 16.0 | 0.00 | 0.00 | 0.00 | 74 | 1012.1 |
| 20260505013958 | 62 | 229 | 11.0 | 17.0 | 0.00 | 0.00 | 0.00 | 74 | 1012.2 |
| 20260505013457 | 62 | 211 | 11.0 | 17.0 | 0.00 | 0.00 | 0.00 | 73 | 1012.2 |
| 20260505013000 | 62 | 233 | 11.0 | 17.0 | 0.00 | 0.00 | 0.00 | 72 | 1012.0 |
| 20260505012456 | 63 | 270 | 11.0 | 17.0 | 0.00 | 0.00 | 0.00 | 72 | 1012.2 |
| 20260505011956 | 63 | 241 | 12.0 | 16.0 | 0.00 | 0.00 | 0.00 | 72 | 1012.1 |
| 20260505011719 | 63 | 237 | 11.0 | 16.0 | 0.00 | 0.00 | 0.00 | 72 | 1012.2 |
| 20260505010954 | 64 | 231 | 10.0 | 16.0 | 0.00 | 0.00 | 0.00 | 71 | 1012.1 |
| 20260505010454 | 64 | 221 | 10.0 | 17.0 | 0.00 | 0.00 | 0.00 | 70 | 1012.2 |
| 20260505005952 | 64 | 261 | 10.0 | 17.0 | 0.00 | 0.00 | 0.00 | 71 | 1012.1 |
| 20260505005452 | 64 | 232 | 10.0 | 16.0 | 0.00 | 0.00 | 0.00 | 70 | 1012.3 |
| 20260505004952 | 65 | 230 | 10.0 | 16.0 | 0.00 | 0.00 | 0.00 | 70 | 1012.2 |
| 20260505004448 | 65 | 275 | 10.0 | 18.0 | 0.00 | 0.00 | 0.00 | 69 | 1012.2 |
| 20260505003950 | 65 | 226 | 11.0 | 19.0 | 0.00 | 0.00 | 0.00 | 70 | 1012.3 |
| 20260505003708 | 65 | 243 | 11.0 | 19.0 | 0.00 | 0.00 | 0.00 | 69 | 1012.2 |
| 20260505003215 | 65 | 243 | 10.0 | 17.0 | 0.00 | 0.00 | 0.00 | 70 | 1012.1 |
| 20260505002448 | 66 | 249 | 10.0 | 17.0 | 0.00 | 0.00 | 0.00 | 68 | 1012.0 |
| 20260505001946 | 66 | 250 | 10.0 | 17.0 | 0.00 | 0.00 | 0.00 | 68 | 1012.1 |
| 20260505001445 | 67 | 243 | 10.0 | 16.0 | 0.00 | 0.00 | 0.00 | 68 | 1012.1 |
| 20260505000946 | 67 | 250 | 10.0 | 16.0 | 0.00 | 0.00 | 0.00 | 66 | 1012.1 |
| 20260505000444 | 67 | 251 | 8.0 | 15.0 | 0.00 | 0.00 | 0.00 | 68 | 1012.1 |
| 20260504235941 | 67 | 251 | 9.0 | 18.0 | 0.00 | 0.00 | 0.00 | 68 | 1012.2 |
| 20260504235702 | 67 | 244 | 11.0 | 18.0 | 0.00 | 0.00 | 0.00 | 67 | 1012.2 |
| 20260504234942 | 67 | 225 | 10.0 | 17.0 | 0.00 | 0.00 | 0.00 | 67 | 1012.3 |
| 20260504234441 | 67 | 223 | 9.0 | 16.0 | 0.00 | 0.00 | 0.00 | 67 | 1012.1 |
| 20260504233939 | 67 | 235 | 8.0 | 16.0 | 0.00 | 0.00 | 0.00 | 67 | 1012.1 |
| 20260504233442 | 68 | 252 | 8.0 | 13.0 | 0.00 | 0.00 | 0.00 | 67 | 1012.1 |
| 20260504232939 | 68 | 231 | 9.0 | 14.0 | 0.00 | 0.00 | 0.00 | 67 | 1012.2 |
| 20260504232436 | 68 | 256 | 9.0 | 14.0 | 0.00 | 0.00 | 0.00 | 67 | 1012.2 |
| 20260504232159 | 68 | 238 | 9.0 | 15.0 | 0.00 | 0.00 | 0.00 | 68 | 1012.2 |
| 20260504231433 | 68 | 226 | 9.0 | 15.0 | 0.00 | 0.00 | 0.00 | 67 | 1012.4 |
| 20260504230932 | 68 | 252 | 9.0 | 15.0 | 0.00 | 0.00 | 0.00 | 68 | 1012.4 |
| 20260504230427 | 68 | 225 | 9.0 | 15.0 | 0.00 | 0.00 | 0.00 | 68 | 1012.4 |
| 20260504225927 | 68 | 249 | 9.0 | 15.0 | 0.00 | 0.00 | 0.00 | 69 | 1012.6 |
| 20260504225428 | 68 | 229 | 9.0 | 15.0 | 0.00 | 0.00 | 0.00 | 66 | 1012.5 |
| 20260504224924 | 68 | 237 | 8.0 | 14.0 | 0.00 | 0.00 | 0.00 | 66 | 1012.7 |
| 20260504224424 | 69 | 254 | 9.0 | 16.0 | 0.00 | 0.00 | 0.00 | 66 | 1012.7 |
| 20260504223922 | 69 | 305 | 9.0 | 16.0 | 0.00 | 0.00 | 0.00 | 67 | 1012.8 |
| 20260504223421 | 69 | 243 | 8.0 | 15.0 | 0.00 | 0.00 | 0.00 | 66 | 1012.7 |
| 20260504223142 | 69 | 258 | 8.0 | 15.0 | 0.00 | 0.00 | 0.00 | 64 | 1012.9 |
| 20260504222415 | 69 | 310 | 8.0 | 13.0 | 0.00 | 0.00 | 0.00 | 66 | 1013.1 |
| 20260504221918 | 69 | 227 | 8.0 | 14.0 | 0.00 | 0.00 | 0.00 | 67 | 1013.0 |
| 20260504221641 | 69 | 250 | 9.0 | 14.0 | 0.00 | 0.00 | 0.00 | 65 | 1013.1 |
| 20260504220910 | 69 | 270 | 8.0 | 14.0 | 0.00 | 0.00 | 0.00 | 65 | 1013.2 |
| 20260504220411 | 69 | 256 | 8.0 | 14.0 | 0.00 | 0.00 | 0.00 | 64 | 1013.2 |
| 20260504220347 | 69 | 238 | 8.0 | 14.0 | 0.00 | 0.00 | 0.00 | 66 | 1013.2 |
| 20260504215409 | 70 | 221 | 8.0 | 15.0 | 0.00 | 0.00 | 0.00 | 65 | 1013.3 |
| 20260504214909 | 69 | 265 | 7.0 | 15.0 | 0.00 | 0.00 | 0.00 | 65 | 1013.2 |
| 20260504214407 | 69 | 249 | 8.0 | 13.0 | 0.00 | 0.00 | 0.00 | 67 | 1013.2 |
| 20260504214130 | 68 | 220 | 7.0 | 13.0 | 0.00 | 0.00 | 0.00 | 66 | 1013.2 |
| 20260504213404 | 67 | 259 | 5.0 | 11.0 | 0.00 | 0.00 | 0.00 | 69 | 1013.2 |
| 20260504212902 | 66 | 230 | 5.0 | 10.0 | 0.00 | 0.00 | 0.00 | 70 | 1013.3 |
| 20260504212403 | 67 | 225 | 5.0 | 11.0 | 0.00 | 0.00 | 0.00 | 69 | 1013.2 |
| 20260504211902 | 66 | 161 | 5.0 | 11.0 | 0.00 | 0.00 | 0.00 | 70 | 1013.3 |
| 20260504211401 | 65 | 255 | 4.0 | 10.0 | 0.00 | 0.00 | 0.00 | 69 | 1013.4 |
| 20260504211118 | 65 | 227 | 4.0 | 10.0 | 0.00 | 0.00 | 0.00 | 69 | 1013.4 |
| 20260504210400 | 65 | 260 | 3.0 | 9.0 | 0.00 | 0.00 | 0.00 | 69 | 1013.4 |
| 20260504205859 | 64 | 186 | 3.0 | 9.0 | 0.00 | 0.00 | 0.00 | 72 | 1013.4 |
| 20260504205619 | 65 | 191 | 3.0 | 9.0 | 0.00 | 0.00 | 0.00 | 68 | 1013.4 |
| 20260504204859 | 65 | 229 | 2.0 | 7.0 | 0.00 | 0.00 | 0.00 | 69 | 1013.5 |
| 20260504204357 | 64 | 254 | 2.0 | 8.0 | 0.00 | 0.00 | 0.00 | 73 | 1013.5 |
| 20260504203855 | 64 | 237 | 4.0 | 9.0 | 0.00 | 0.00 | 0.00 | 71 | 1013.6 |
| 20260504203354 | 63 | 194 | 4.0 | 9.0 | 0.00 | 0.00 | 0.00 | 72 | 1013.6 |
| 20260504203123 | 63 | 196 | 5.0 | 12.0 | 0.00 | 0.00 | 0.00 | 73 | 1013.5 |
| 20260504202357 | 63 | 229 | 5.0 | 12.0 | 0.00 | 0.00 | 0.00 | 72 | 1013.6 |
| 20260504201853 | 63 | 218 | 5.0 | 11.0 | 0.00 | 0.00 | 0.00 | 72 | 1013.6 |
| 20260504201355 | 62 | 219 | 4.0 | 11.0 | 0.00 | 0.00 | 0.00 | 73 | 1013.6 |
| 20260504200855 | 62 | 139 | 4.0 | 9.0 | 0.00 | 0.00 | 0.00 | 72 | 1013.8 |
| 20260504200352 | 62 | 232 | 5.0 | 9.0 | 0.00 | 0.00 | 0.00 | 73 | 1013.6 |
| 20260504200114 | 62 | 192 | 5.0 | 9.0 | 0.00 | 0.00 | 0.00 | 74 | 1013.6 |
| 20260504195351 | 62 | 187 | 5.0 | 8.0 | 0.00 | 0.00 | 0.00 | 74 | 1013.8 |
| 20260504194849 | 61 | 206 | 5.0 | 10.0 | 0.00 | 0.00 | 0.00 | 74 | 1013.8 |
| 20260504194349 | 61 | 162 | 5.0 | 10.0 | 0.00 | 0.00 | 0.00 | 75 | 1013.6 |
| 20260504193848 | 61 | 235 | 4.0 | 9.0 | 0.00 | 0.00 | 0.00 | 76 | 1013.6 |
| 20260504193346 | 61 | 126 | 4.0 | 9.0 | 0.00 | 0.00 | 0.00 | 76 | 1013.6 |
| 20260504192846 | 61 | 212 | 5.0 | 9.0 | 0.00 | 0.00 | 0.00 | 74 | 1013.8 |
| 20260504192345 | 61 | 214 | 5.0 | 10.0 | 0.00 | 0.00 | 0.00 | 74 | 1013.8 |
| 20260504191847 | 61 | 226 | 6.0 | 10.0 | 0.00 | 0.00 | 0.00 | 75 | 1013.8 |
| 20260504191347 | 61 | 244 | 6.0 | 10.0 | 0.00 | 0.00 | 0.00 | 75 | 1013.8 |
| 20260504191112 | 61 | 201 | 5.0 | 9.0 | 0.00 | 0.00 | 0.00 | 76 | 1013.9 |
| 20260504190606 | 61 | 221 | 4.0 | 8.0 | 0.00 | 0.00 | 0.00 | 75 | 1013.9 |
| 20260504185847 | 60 | 231 | 3.0 | 8.0 | 0.00 | 0.00 | 0.00 | 77 | 1014.0 |
| 20260504185345 | 60 | 169 | 4.0 | 10.0 | 0.00 | 0.00 | 0.00 | 76 | 1014.0 |
| 20260504185337 | 60 | 219 | 5.0 | 10.0 | 0.00 | 0.00 | 0.00 | 78 | 1014.1 |
| 20260504184344 | 60 | 229 | 4.0 | 9.0 | 0.00 | 0.00 | 0.00 | 78 | 1014.1 |
| 20260504184100 | 59 | 212 | 4.0 | 9.0 | 0.00 | 0.00 | 0.00 | 77 | 1014.1 |
| 20260504183337 | 59 | 224 | 4.0 | 9.0 | 0.00 | 0.00 | 0.00 | 78 | 1014.1 |
| 20260504182837 | 59 | 164 | 4.0 | 9.0 | 0.00 | 0.00 | 0.00 | 78 | 1014.2 |
| 20260504182332 | 58 | 235 | 4.0 | 9.0 | 0.00 | 0.00 | 0.00 | 79 | 1014.1 |
| 20260504182055 | 58 | 212 | 3.0 | 8.0 | 0.00 | 0.00 | 0.00 | 79 | 1014.1 |
| 20260504181556 | 58 | 231 | 4.0 | 8.0 | 0.00 | 0.00 | 0.00 | 79 | 1014.1 |
| 20260504180822 | 58 | 217 | 4.0 | 8.0 | 0.00 | 0.00 | 0.00 | 79 | 1014.1 |
| 20260504180322 | 58 | 240 | 3.0 | 8.0 | 0.00 | 0.00 | 0.00 | 80 | 1014.2 |
| 20260504175823 | 58 | 228 | 3.0 | 8.0 | 0.00 | 0.00 | 0.00 | 79 | 1014.3 |
| 20260504175542 | 58 | 212 | 3.0 | 7.0 | 0.00 | 0.00 | 0.00 | 80 | 1014.2 |
| 20260504174817 | 57 | 154 | 4.0 | 9.0 | 0.00 | 0.00 | 0.00 | 81 | 1014.2 |
| 20260504174312 | 57 | 187 | 4.0 | 9.0 | 0.00 | 0.00 | 0.00 | 81 | 1014.1 |
| 20260504173811 | 57 | 138 | 3.0 | 7.0 | 0.00 | 0.00 | 0.00 | 82 | 1014.2 |
| 20260504173310 | 57 | 196 | 4.0 | 8.0 | 0.00 | 0.00 | 0.00 | 81 | 1014.4 |
| 20260504172309 | 57 | 225 | 3.0 | 7.0 | 0.00 | 0.00 | 0.00 | 82 | 1014.3 |
| 20260504171809 | 57 | 166 | 4.0 | 9.0 | 0.00 | 0.00 | 0.00 | 82 | 1014.4 |
| 20260504171310 | 57 | 201 | 4.0 | 9.0 | 0.00 | 0.00 | 0.00 | 82 | 1014.2 |
| 20260504170810 | 56 | 190 | 4.0 | 7.0 | 0.00 | 0.00 | 0.00 | 82 | 1014.2 |
| 20260504170532 | 57 | 191 | 3.0 | 7.0 | 0.00 | 0.00 | 0.00 | 83 | 1014.2 |
| 20260504160257 | 55 | 177 | 4.0 | 8.0 | 0.00 | 0.00 | 0.00 | 84 | 1014.0 |
| 20260504151011 | 55 | 230 | 4.0 | 10.0 | 0.00 | 0.00 | 0.00 | 84 | 1013.8 |
| 20260504150250 | 55 | 223 | 4.0 | 9.0 | 0.00 | 0.00 | 0.00 | 84 | 1013.8 |
| 20260504141224 | 54 | 190 | 5.0 | 10.0 | 0.00 | 0.00 | 0.00 | 86 | 1013.4 |
| 20260504140725 | 54 | 200 | 4.0 | 9.0 | 0.00 | 0.00 | 0.00 | 86 | 1013.3 |
| 20260504140218 | 54 | 161 | 4.0 | 7.0 | 0.00 | 0.00 | 0.00 | 86 | 1013.2 |
| 20260504130711 | 54 | 181 | 2.0 | 4.0 | 0.00 | 0.00 | 0.00 | 87 | 1012.9 |
| 20260504130202 | 54 | 187 | 2.0 | 6.0 | 0.00 | 0.00 | 0.00 | 87 | 1012.8 |
| 20260504110545 | 54 | 196 | 2.0 | 5.0 | 0.00 | 0.00 | 0.00 | 86 | 1012.4 |
| 20260504100535 | 54 | 216 | 5.0 | 10.0 | 0.00 | 0.00 | 0.00 | 86 | 1012.2 |
| 20260504081501 | 54 | 235 | 6.0 | 13.0 | 0.00 | 0.00 | 0.00 | 86 | 1011.6 |
| 20260504081451 | 54 | 214 | 6.0 | 11.0 | 0.00 | 0.00 | 0.00 | 86 | 1011.5 |
| 20260504080501 | 54 | 178 | 7.0 | 12.0 | 0.00 | 0.00 | 0.00 | 86 | 1011.5 |
| 20260504060212 | 57 | 183 | 6.0 | 11.0 | 0.00 | 0.00 | 0.00 | 80 | 1010.2 |
| 20260504050435 | 61 | 219 | 7.0 | 12.0 | 0.00 | 0.00 | 0.00 | 74 | 1009.1 |
| 20260504050154 | 61 | 230 | 6.0 | 11.0 | 0.00 | 0.00 | 0.00 | 73 | 1009.0 |
| 20260504045434 | 62 | 193 | 7.0 | 13.0 | 0.00 | 0.00 | 0.00 | 73 | 1008.8 |
| 20260504044933 | 62 | 220 | 7.0 | 13.0 | 0.00 | 0.00 | 0.00 | 72 | 1008.7 |
| 20260504044433 | 63 | 183 | 7.0 | 13.0 | 0.00 | 0.00 | 0.00 | 71 | 1008.7 |
| 20260504043933 | 64 | 250 | 8.0 | 13.0 | 0.00 | 0.00 | 0.00 | 70 | 1008.7 |
| 20260504043434 | 64 | 189 | 9.0 | 13.0 | 0.00 | 0.00 | 0.00 | 69 | 1008.6 |
| 20260504042932 | 65 | 219 | 10.0 | 18.0 | 0.00 | 0.00 | 0.00 | 68 | 1008.5 |
| 20260504042430 | 66 | 231 | 10.0 | 18.0 | 0.00 | 0.00 | 0.00 | 68 | 1008.3 |
| 20260504041928 | 67 | 221 | 10.0 | 16.0 | 0.00 | 0.00 | 0.00 | 67 | 1008.3 |
| 20260504041652 | 67 | 189 | 11.0 | 16.0 | 0.00 | 0.00 | 0.00 | 66 | 1008.1 |
| 20260504040925 | 68 | 206 | 10.0 | 16.0 | 0.00 | 0.00 | 0.00 | 66 | 1008.0 |
| 20260504040421 | 69 | 248 | 9.0 | 16.0 | 0.00 | 0.00 | 0.00 | 66 | 1007.8 |
| 20260504040141 | 69 | 232 | 8.0 | 16.0 | 0.00 | 0.00 | 0.00 | 65 | 1007.8 |
| 20260504035419 | 71 | 251 | 8.0 | 16.0 | 0.00 | 0.00 | 0.00 | 64 | 1007.6 |
| 20260504034918 | 71 | 230 | 9.0 | 16.0 | 0.00 | 0.00 | 0.00 | 63 | 1007.6 |